RS30S (SXC3-217 SIREN) (53384 NORAD) Tracking and Keplerian Element Data

This shows tracking and keplerian element data for the satellite.

Feedback or suggestion? Click here.




ElementValue
Catalog53384
NameRS30S (SXC3-217 SIREN)
Epoch Orbit745
Epoch Day270.19815806
Epoch Year2022
RAAN171.3524
Inclination97.4322
Eccentricity0.0002385
Argument of Perigee290.7036
Mean Anonmoly195.8352
Mean Motion15.25747335
Decay Rate7.552E-05
L11 53384U 22096Q 22270.19815806 .00007552 00000+0 29875-3 0 9995
L22 53384 97.4322 171.3524 0002385 290.7036 195.8352 15.25747335 7451

Live tracking and technical data element details for RS30S (SXC3-217 SIREN) (NORAD 53384). RS30S (SXC3-217 SIREN) can be tracked NOW for your location showing map with azimuth and elevation plus other details from your city location.

Track the satellite on the map from your city or location and see movement details for azimuth, elevation, latitude, longitude, range, height, and movement on the map or in text.







IsCatalogInMostPopularTable: catalog: 53384, numindb: 3
Update: records affected: 1



GetName: 53384 RS30S (SXC3-217 SIREN)

Hit Count: updated at: Fri, 30 Sep 2022 02:51:36 GMT